Location: Kapla
(46.2483°N, 15.0094°E)
Time: 15:34:45
(UTC+00:00)

DMSP B5D2-2 - Pass Details

Date: 03 March 2021
Orbit: 789 x 807 km, 98.3° (Epoch: 15 April)

Event Time Altitude Azimuth Distance (km) Brightness Sun altitude
Rises 18:06:57 0° 18° (NNE) 3,310 7.2 -14.2°
Reaches altitude 10° 18:09:23 10° 23° (NNE) 2,373 6.4 -14.7°
Maximum altitude 18:14:29 51° 99° (E) 993 4.2 -15.5°
Drops below altitude 10° 18:19:31 10° 175° (S) 2,348 6.4 -16.4°
Sets 18:21:53 0° 181° (S) 3,271 7.2 -16.8°
